Powrót do katalogu

GEESAT 3-10

AktywnyŁącznośćLEO
NORAD 61020·PAYLOAD·🇨🇳 China

Wystrzelony Sep 5, 2024 z Taiyuan Satellite Launch Center

Loading…

Następne Przeloty (najbliższe 24 godziny)

TLE

ŚwieżeSource: Space-Track

Epoka: Sep 14, 2026, 13:33 UTC

1 61020U 24159K   26257.56476614  .00001464  00000-0  19874-3 0  9998
2 61020  50.0007  28.5845 0003824  97.8266 262.3107 14.84494911109781

Śledź GEESAT 3-10 w czasie rzeczywistym z AllMySat

Download on the App Store